Home   Weather   Vicksburg   Past weeks
Flag for USA

Past Weather in Vicksburg, Mississippi, USA — Yesterday and Last 2 Weeks

Now
77 °F

Passing clouds.


Feels Like: 79 °F
Forecast: 91 / 70 °F
Wind: 6 mph from South

Location: Vicksburg Municipal

Current Time: Sep 23, 2019 at 12:39:36 am

Latest Report: Sep 22, 2019 at 11:55 pm


Visibility: 10 mi

Pressure: 30.08 "Hg

Humidity: 79%

Dew Point: 70 °F

Location of VicksburgLocation

Past Weather in Vicksburg — Graph

°F

Vicksburg Temperature Yesterday

Maximum temperature yesterday: 93 °F (at 2:55 pm)
Minimum temperature yesterday: 72 °F (at 6:35 am)
Average temperature yesterday: 82 °F

High & Low Weather Summary for the Past Weeks

 TemperatureHumidityPressure
High99 °F (Sep 8, 2:15 pm)100% (Sep 7, 11:15 pm)30.22 "Hg (Sep 7, 11:15 pm)
Low64 °F (Sep 21, 6:15 am)31% (Sep 8, 3:55 pm)29.92 "Hg (Sep 18, 3:35 pm)
Average82 °F75%30.06 "Hg
* Reported Sep 7 11:15 pm — Sep 22 11:35 pm, Vicksburg. Weather by CustomWeather, © 2019

Note: Actual official high and low records may vary slightly from our data, if they occured in-between our weather recording intervals... More about our weather records

Advertising

Vicksburg Weather History for the Previous 24 Hours

Scroll right to see more
 ConditionsComfort  
Time TempWeatherWind HumidityBarometerVisibility
11:35 pm
Sun, Sep 22
77 °FPassing clouds.3 mph79%30.08 "Hg10 mi
11:15 pm77 °FPassing clouds.No wind79%30.07 "Hg10 mi
10:55 pm79 °FClear.6 mph74%30.07 "Hg10 mi
10:35 pm79 °FPassing clouds.5 mph70%30.07 "Hg10 mi
10:15 pm79 °FPassing clouds.3 mph70%30.07 "Hg10 mi
9:55 pm81 °FOvercast.5 mph66%30.07 "Hg10 mi
9:35 pm81 °FOvercast.6 mph66%30.07 "Hg10 mi
9:15 pm81 °FOvercast.3 mph66%30.06 "Hg10 mi
8:55 pm81 °FOvercast.5 mph70%30.06 "Hg10 mi
8:35 pm81 °FOvercast.5 mph70%30.05 "Hg10 mi
8:15 pm81 °FOvercast.No wind74%30.05 "Hg10 mi
7:55 pm81 °FPassing clouds.No wind70%30.04 "Hg10 mi
7:15 pm82 °FClear.No wind62%30.04 "Hg10 mi
6:55 pm84 °FPassing clouds.No wind58%30.03 "Hg10 mi
6:35 pm86 °FScattered clouds.3 mph55%30.03 "Hg10 mi
6:15 pm86 °FPartly sunny.5 mph55%30.02 "Hg10 mi
5:55 pm88 °FPartly sunny.3 mph49%30.02 "Hg10 mi
5:35 pm90 °FScattered clouds.6 mph46%30.03 "Hg10 mi
5:15 pm90 °FPartly sunny.6 mph46%30.03 "Hg10 mi
4:55 pm90 °FBroken clouds.7 mph46%30.03 "Hg10 mi
4:35 pm90 °FMostly cloudy.5 mph46%30.03 "Hg10 mi
4:15 pm90 °FOvercast.5 mph46%30.03 "Hg10 mi
3:55 pm90 °FPartly sunny.6 mph43%30.03 "Hg10 mi
3:35 pm90 °FPartly sunny.5 mph43%30.03 "Hg10 mi
3:15 pm91 °FPartly sunny.9 mph41%30.03 "Hg10 mi
2:55 pm93 °FSunny.8 mph39%30.04 "Hg10 mi
2:35 pm91 °FScattered clouds.7 mph41%30.05 "Hg10 mi
1:55 pm91 °FBroken clouds.8 mph41%30.07 "Hg10 mi
1:35 pm91 °FScattered clouds.5 mph41%30.08 "Hg10 mi
12:55 pm90 °FSunny.6 mph43%30.09 "Hg10 mi
12:35 pm90 °FSunny.8 mph43%30.10 "Hg10 mi
12:15 pm90 °FSunny.8 mph46%30.10 "Hg10 mi
11:55 am88 °FSunny.9 mph49%30.11 "Hg10 mi
11:35 am88 °FSunny.8 mph49%30.12 "Hg10 mi
11:15 am88 °FSunny.9 mph49%30.12 "Hg10 mi
10:55 am86 °FSunny.10 mph52%30.13 "Hg10 mi
10:35 am86 °FSunny.12 mph52%30.14 "Hg10 mi
10:15 am84 °FSunny.10 mph58%30.14 "Hg10 mi
9:55 am82 °FSunny.13 mph62%30.14 "Hg10 mi
9:35 am82 °FSunny.6 mph66%30.14 "Hg10 mi
9:15 am81 °FSunny.No wind70%30.14 "Hg10 mi
8:55 am79 °FSunny.5 mph79%30.13 "Hg10 mi
8:35 am77 °FSunny.3 mph89%30.13 "Hg10 mi
8:15 am77 °FSunny.No wind89%30.13 "Hg10 mi
7:55 am75 °FSunny.No wind94%30.13 "Hg10 mi
7:35 am73 °FSunny.No wind100%30.13 "Hg10 mi
6:55 am72 °FPartly sunny.No wind100%30.12 "Hg10 mi
6:35 am72 °FPassing clouds.No wind100%30.12 "Hg10 mi
6:15 am73 °FPassing clouds.No wind100%30.12 "Hg10 mi
5:55 am73 °FPartly cloudy.No wind100%30.12 "Hg10 mi
5:35 am73 °FMostly cloudy.No wind100%30.11 "Hg10 mi
4:55 am75 °FOvercast.3 mph94%30.11 "Hg10 mi
4:35 am75 °FOvercast.5 mph94%30.10 "Hg10 mi
4:15 am75 °FOvercast.3 mph94%30.10 "Hg10 mi
3:55 am75 °FOvercast.No wind94%30.11 "Hg10 mi
3:35 am75 °FOvercast.No wind94%30.11 "Hg10 mi
2:55 am75 °FOvercast.No wind94%30.12 "Hg10 mi
2:35 am75 °FMostly cloudy.No wind94%30.12 "Hg10 mi
1:55 am75 °FMostly cloudy.No wind94%30.11 "Hg10 mi
1:35 am75 °FOvercast.No wind94%30.11 "Hg10 mi
1:15 am75 °FOvercast.No wind89%30.11 "Hg10 mi
12:55 am75 °FOvercast.No wind89%30.11 "Hg10 mi
12:35 am75 °FOvercast.5 mph89%30.11 "Hg10 mi
12:15 am75 °FPassing clouds.5 mph89%30.11 "Hg10 mi
Weather by CustomWeather, © 2019

See weather overview